Weather Service Report


715 
ASUS46 KLOX 230803
RWRCA 

SOUTHERN CALIFORNIA WEATHER ROUNDUP
NATIONAL WEATHER SERVICE OXNARD CALIFORNIA
100 AM PDT THU SEP 23 2021

NOTE: "FAIR" INDICATES FEW OR NO CLOUDS BELOW 12,000 FEET WITH NO 
SIGNIFICANT WEATHER AND/OR OBSTRUCTIONS TO VISIBILITY.

  -  STATIONS PRECEEDED BY AN ASTERISK (*) ARE NOT NWS OR FAA 
     STATIONS AND ARE NOT SUBJECT TO NWS AND FAA QUALITY CONTROL.

CAZ041-042-087-230900-
LA AND ORANGE COUNTY COASTAL AREAS

  
CITY           SKY/WX    TMP DP  RH WIND       PRES   REMARKS
L.A. DOWNTOWN  CLEAR     69  60  73 CALM      29.94F                  
L.A. AIRPORT   PTCLDY    65  59  81 SW8       29.95S                  
LONG BEACH     CLEAR     70  58  65 NW8       29.94F                  

CITY           SKY/WX    TMP DP  RH WIND       PRES   REMARKS
FULLERTON      CLEAR     71  59  65 CALM      29.94S                  
HAWTHORNE      CLEAR     66  60  81 SW6       29.95S                  
*LEO CARRILLO    N/A     63  57  82 E2          N/A                   
*LOS ALAMITOS  FAIR      65  62  89 CALM      29.94S                  
SANTA ANA      CLEAR     69  59  70 SW3       29.95S                  
STA MONICA APT CLEAR     65  60  84 S5        29.95F                  
*STA MON PIER    N/A     64 -39   1 CALM      29.90F                  
*UCLA            N/A     68  59  73 CALM      29.92F                  

$$

CAZ547-548-048-230900-
LA COUNTY VALLEYS AND INLAND EMPIRE

  
CITY           SKY/WX    TMP DP  RH WIND       PRES   REMARKS
BURBANK        NOT AVBL                                               
VAN NUYS       CLEAR     77  39  25 SE5       29.95S                  

CITY           SKY/WX    TMP DP  RH WIND       PRES   REMARKS
CORONA AIRPORT SUNNY     66  50  56 CALM      29.96S                  
*CHATSWORTH      N/A     73  47  39 CALM      29.92S                  
CHINO          CLEAR     74  49  41 CALM      29.97S                  
*CLAREMONT       N/A     71  51  49 CALM        N/A                   
MARCH AFB      CLEAR     75  48  38 CALM      29.99F                  
*NORTHRIDGE      N/A     73  41  31 CALM        N/A                   
ONTARIO        PTCLDY    77  47  34 CALM      29.96F                  
*PASADENA        N/A     73  55  53 CALM        N/A                   
RIVERSIDE      CLEAR     75  48  38 CALM      29.96F                  
SAN BERNARDINO FAIR      76  47  35 CALM      29.98F                  
*SAN RAFAEL HI   N/A     72  48  43 E7          N/A                   
*SAUGUS          N/A     74  51  44 CALM        N/A                   
*WHITEMAN AP   NOT AVBL                                               
*WHITTIER HILL   N/A     70  49  48 CALM        N/A                   
*WOODLAND HILL   N/A     72  41  33 MISG        N/A                   

$$

CAZ054-055-230900-
LA AND SAN BERNARDINO COUNTY MOUNTAINS

  
CITY           SKY/WX    TMP DP  RH WIND       PRES   REMARKS
*ACTON           N/A     66  50  55 N5          N/A                   
*BIG BEAR AIRP SUNNY     50  36  57 CALM      30.33S                  
*BIG PINES       N/A     60  40  47 CALM        N/A                   
*CHILAO          N/A     68  50  52 NW6         N/A                   
SANDBERG       CLEAR     72  46  39 NW12      30.18F                  
*WARM SPRINGS    N/A     72  48  43 W13         N/A                   

$$

CAZ028-029-059-060-099-230900-
ANTELOPE VALLEY AND SURROUNDING AREAS

  
CITY           SKY/WX    TMP DP  RH WIND       PRES   REMARKS
LANCASTER      CLEAR     74  48  39 W8        30.02F                  
PALMDALE       CLEAR     74  51  44 SW7       30.04F                  
*POPPY PARK      N/A     76  47  35 W10         N/A                   

CITY           SKY/WX    TMP DP  RH WIND       PRES   REMARKS
29 PALMS       CLEAR     80  45  28 W7        30.04F                  
BARSTOW/DAGGET CLEAR     85  48  27 W17       29.97F                  
BISHOP         CLEAR     59  31  34 NW6       30.11S                  
CHINA LAKE     CLOUDY    76  33  21 W5        29.95S                  
EDWARDS AFB    PTCLDY    73  51  44 SW10      29.99F                  
NEEDLES        CLEAR     84  27  12 SE3       29.89S                  

$$

CAZ039-040-230900-
VENTURA AND SANTA BARBARA COUNTY COAST

  
CITY           SKY/WX    TMP DP  RH WIND       PRES   REMARKS
CAMARILLO      CLEAR     63  58  83 W5        29.95F                  
OXNARD AIRPORT CLOUDY    60  58  92 W14       29.95F                  
*POINT MUGU    MOCLDY    60  55  83 NW9       29.96S                  
SBA APT/GOLETA CLEAR     58  55  90 NW5       29.94F                  
*SANTA BARBARA   N/A     62  56  80 CALM      30.01F                  
*VENTURA         N/A     59  57  94 W5          N/A                   

$$

CAZ044-045-230900-
VENTURA COUNTY VALLEYS

  
CITY           SKY/WX    TMP DP  RH WIND       PRES   REMARKS
*SIMI VALLEY     N/A     68  52  56 CALM      29.87S                  
*N 1000 OAKS     N/A     73  42  33 CALM      29.94F                  
*TO CIVIC ARTS   N/A     68  46  45 MISG        N/A                   
*WESTLAKE VILL   N/A     62  47  58 CALM      29.90F                  
*OJAI            N/A     86  51  29 CALM      29.83F                  
*FILLMORE        N/A     61  56  85 CALM      29.98F                  

$$

CAZ053-230900-
VENTURA COUNTY MOUNTAINS

  
CITY           SKY/WX    TMP DP  RH WIND       PRES   REMARKS
*LOCKWOOD VLY    N/A     52  41  66 NW5         N/A                   
*ROSE VALLEY     N/A     55  45  67 E1          N/A                   

$$

CAZ034-035-036-230900-
CENTRAL COAST AND SANTA YNEZ VALLEY

  
CITY           SKY/WX    TMP DP  RH WIND       PRES   REMARKS
SAN LUIS OBISP CLOUDY    57  55  93 NW6       30.01F                  
SANTA MARIA    CLOUDY    57  54  89 CALM      30.01F                  

CITY           SKY/WX    TMP DP  RH WIND       PRES   REMARKS
*LOMPOC        CLOUDY    57  55  93 N3        30.02F FOG              
*PISMO BEACH     N/A     56  46  68 CALM      30.00F                  
*SANTA YNEZ    MOCLDY    54  52  94 CALM      30.03F                  

$$

CAZ037-038-051-230900-
SAN LUIS OBISPO COUNTY INTERIOR AND CUYAMA VALLEY

  
CITY           SKY/WX    TMP DP  RH WIND       PRES   REMARKS
*CUYAMA          N/A     66  45  45 CALM      29.89S                  
PASO ROBLES    CLEAR     61  50  67 NW3       30.00S                  

$$

CAZ032-033-061-230900-
SOUTHERN DESERTS

  
CITY           SKY/WX    TMP DP  RH WIND       PRES   REMARKS
BLYTHE         NOT AVBL                                               
IMPERIAL         N/A     84  51  31 W8        29.83S                  
PALM SPRINGS   CLEAR     84  43  23 CALM      29.87F                  
THERMAL        CLEAR     81  54  39 N3        29.81F                  

$$

ELSEWHERE ACROSS THE WESTERN UNITED STATES AND MEXICO

  
CITY           SKY/WX    TMP DP  RH WIND       PRES   REMARKS
DENVER, CO     CLEAR     56  27  32 SW13      30.12S                  
GRAND CANYON,  CLEAR     44  35  70 CALM      30.31S                  
HONOLULU, HI   PTCLDY    78  64  61 E8        30.05R                  
KAHULUI, MAUI  PTCLDY    76  68  76 NE18G24   30.04R                  
LAKE TAHOE, CA CLEAR     44  33  65 CALM      30.30F                  
LAS VEGAS, NV  CLEAR     79  33  19 S5        29.94F                  
MAMMOTH LAKES, FAIR      45  25  45 CALM      30.34S                  
MEXICO CITY, M PTCLDY    57  46  67 N6        30.41F                  
PHOENIX, AZ    PTCLDY    85  47  26 E6        29.89S                  
PORTLAND, OR   CLEAR     61  55  81 N3        30.27S                  
RENO, NV       CLEAR     60  38  43 S5        30.21R                  
SALT LAKE CITY PTCLDY    59  38  45 CALM      30.09S                  
SAN DIEGO, CA  MOCLDY    73  61  65 CALM      29.96F                  
SAN FRANCISCO, PTCLDY    56  52  86 NW12      29.98F                  
SAN JOSE, CA   CLEAR     62  56  80 NW3       29.99S                  
SEATTLE, WA    MOCLDY    58  56  93 SE3       30.28S                  
TIJUANA, MEX   PTCLDY    73  52  46 W3        29.99F                  

$$
  
STATION/POSITION TIME  TEMP    WIND        PRES    VSBY  WAVE
                       AIR SEA DIR/SP/G                  HT/PER
                 (UTC) (F)     (DEG/KT/KT) (MB)    (MI)  (FT/S)
WEST SANTA BARBA 0740   57 58  310/ 23/ 27 1014.7F
EAST SANTA BARBA 0740   59 61  260/ 17/ 21 1014.4F
SANTA MONICA BAY 0740   63 66  300/  8/ 10 1013.9F
SAN CLEMENTE BAS 0740   67 69  300/  6/  8 1014.1F

Return to Home page


Western Regional Climate Center, wrcc@dri.edu